* Astronomy

Members Login
Username 
 
Password 
    Remember Me  
Post Info TOPIC: Asteroid 2010 NZ1


L

Posts: 131433
Date:
Asteroid 2010 NZ1
Permalink  
 


Orbital elements:
2010 NZ1 Earth MOID = 0.2691 AU
Epoch 2010 July 23.0 TT = JDT 2455400.5 MPC
M 74.26965 (2000.0) P Q
n 0.62164952 Peri. 37.56119 -0.92548852 +0.32588377
a 1.3596871 Node 158.79603 -0.30732488 -0.94398401
e 0.6452196 Incl. 32.26008 +0.22141008 +0.05190332
P 1.59 H 19.8 G 0.15 U 8

MPEC 2010 - O03


__________________
Page 1 of 1  sorted by
 
Quick Reply

Please log in to post quick replies.



Create your own FREE Forum
Report Abuse
Powered by ActiveBoard